Theta_e
294 294 294 294 294 295 295 295 295 295 296 296 297 298 299 299 299 299 300 302 302 304 307 308 307 306 305 307 306 306 308 308 311 311 311 310 309 310 310 311 311 312 312 311 310 308 307 304 305 302 301 300 300 299 298 295 295 294 293 292 291 290 289 289 291 291 290 287 287 287 289 288 289 289 289 288 289 290 290 290 290 290 289 289 289
293 292 293 293 293 293 294 294 294 293 294 294 295 296 297 298 298 298 299 300 300 301 304 306 305 305 305 304 304 305 307 306 308 308 308 308 307 308 308 309 310 311 309 308 308 308 306 303 303 303 300 300 300 299 297 295 294 293 291 289 290 291 290 290 291 291 287 287 286 286 286 285 286 288 288 288 289 290 291 291 290 290 289 289 288
291 291 291 291 292 292 293 293 293 293 293 293 294 295 295 296 296 297 298 299 299 299 300 302 304 305 305 303 304 305 306 306 305 304 306 305 305 304 305 306 308 307 306 306 306 306 305 303 301 302 301 301 299 298 296 295 293 293 292 292 289 288 289 290 291 292 287 285 285 285 281 284 285 286 286 288 289 290 289 290 290 289 290 289 289
289 289 289 290 290 291 291 292 292 292 292 292 293 293 294 294 295 296 296 297 298 298 299 300 301 301 301 301 302 304 302 301 303 303 303 304 304 303 303 301 302 303 303 304 304 305 304 303 301 300 300 299 300 299 297 296 293 292 292 292 291 289 288 289 291 291 287 288 284 285 281 282 280 283 285 285 288 289 289 289 289 289 289 289 288
289 289 289 289 289 289 290 291 291 291 292 292 292 292 293 293 294 294 295 296 297 297 298 299 300 300 299 300 299 298 299 299 298 297 298 298 300 300 301 300 300 300 299 301 302 302 302 303 300 299 298 298 299 299 297 297 296 294 293 292 291 291 289 288 290 290 288 292 288 282 281 282 282 281 283 283 285 286 287 288 289 289 288 288 288
289 288 288 288 288 289 289 290 290 290 291 292 292 292 292 293 293 293 294 294 295 295 296 298 297 297 297 296 295 295 294 296 295 296 297 298 299 298 299 299 299 299 297 298 298 298 299 299 299 297 297 298 298 298 298 297 295 295 294 293 291 290 291 288 288 290 289 289 288 286 286 285 281 282 283 281 284 284 286 287 287 288 288 288 287
288 288 288 288 288 288 288 288 289 289 290 291 292 292 292 292 292 292 293 293 294 294 294 295 296 296 296 295 294 294 293 294 295 295 295 296 296 297 298 298 298 300 297 296 297 296 297 296 297 297 296 296 297 297 297 296 296 295 295 294 293 293 289 288 288 290 289 289 289 288 288 285 285 285 283 279 280 282 284 286 286 286 287 287 287
287 287 287 287 287 287 287 288 288 289 289 290 290 291 291 291 291 292 292 292 292 293 293 293 293 293 293 294 294 293 293 293 295 295 296 295 294 295 295 296 296 298 298 296 295 295 295 296 295 295 296 294 295 295 296 296 296 296 295 295 295 293 292 290 289 289 289 289 289 288 287 287 285 287 283 287 283 280 282 283 284 286 286 287 287
287 287 287 287 287 287 287 287 288 288 289 289 289 289 290 290 290 291 291 292 292 292 292 292 292 292 292 292 291 292 293 293 293 294 294 294 294 294 294 294 295 295 296 297 295 295 295 295 294 294 294 295 293 294 294 295 295 295 295 294 294 293 292 291 290 289 289 289 287 287 287 287 287 287 287 285 283 283 280 282 283 284 284 285 286
287 287 287 287 287 287 287 287 287 287 288 289 288 289 289 289 289 289 289 290 291 291 291 291 291 291 290 290 290 290 291 291 292 291 291 292 292 292 292 293 293 293 295 293 294 294 294 293 293 293 293 294 293 292 291 291 293 293 294 294 294 294 293 292 291 291 290 290 289 289 287 286 287 288 286 285 284 282 285 281 282 283 283 286 287
286 286 286 287 287 287 287 286 286 286 287 287 288 288 288 288 288 288 288 289 289 289 289 289 290 290 289 289 289 289 289 289 289 289 290 290 290 290 291 291 292 292 293 293 293 293 293 292 292 293 292 292 292 292 292 292 291 291 292 292 293 294 294 293 292 291 291 290 289 287 288 288 288 288 288 286 287 286 284 282 280 284 285 284 284
286 286 286 286 286 287 287 286 286 286 286 286 286 287 287 287 287 287 287 288 288 288 288 288 288 288 289 289 288 289 289 289 288 288 289 289 289 289 290 290 290 291 291 291 292 292 292 293 292 291 292 292 292 293 292 292 292 290 290 289 290 291 293 293 292 292 290 290 290 289 288 288 289 289 289 289 289 288 288 285 282 281 283 283 282
285 285 285 285 286 286 286 286 286 285 285 285 285 286 286 286 286 286 286 287 287 288 288 287 287 287 287 287 288 288 288 288 288 288 288 288 288 288 288 288 289 289 290 290 290 291 291 292 292 293 293 293 292 291 292 291 291 291 291 289 289 289 290 290 291 291 291 290 290 290 289 288 288 290 289 288 289 289 287 285 283 281 282 282 282
284 284 284 284 285 285 285 285 285 285 284 285 285 285 285 285 285 285 285 285 286 287 287 287 287 286 286 286 287 287 286 287 286 287 287 287 288 287 287 287 287 288 288 289 290 290 291 291 292 292 292 291 291 290 290 291 291 291 291 289 289 289 289 289 289 289 289 290 289 289 288 288 288 288 289 288 287 287 285 285 284 282 281 282 281
283 283 283 284 284 284 284 284 284 284 284 284 284 284 284 284 284 284 284 284 285 285 286 286 286 286 285 286 286 286 286 286 286 287 286 286 286 286 286 286 286 287 287 288 289 289 290 290 290 291 291 291 291 291 292 290 290 290 290 290 289 288 287 287 287 287 288 287 287 287 287 287 287 286 287 288 288 287 288 286 285 285 282 281 281
282 282 283 283 283 283 283 283 283 283 282 283 283 283 283 283 283 283 282 283 284 284 284 284 285 285 284 284 284 285 285 285 286 286 285 285 285 285 285 285 285 286 287 287 287 288 288 288 288 289 289 290 290 290 290 290 289 288 288 288 288 289 287 286 286 286 286 286 286 286 286 286 286 286 286 288 288 288 287 286 285 286 286 284 280
284 284 284 284 283 283 284 283 283 283 283 283 283 283 282 282 282 282 282 283 283 283 283 283 283 283 283 283 283 282 283 283 284 284 284 284 284 284 284 285 285 285 286 286 286 286 286 286 287 287 287 288 288 288 287 287 287 287 288 287 287 287 286 286 286 285 285 285 285 285 286 287 286 285 285 286 286 286 287 287 286 287 287 285 283
283 283 283 283 283 284 283 283 282 282 282 282 283 282 282 282 281 282 282 282 282 283 283 283 283 283 283 282 282 282 282 282 283 282 282 282 283 283 283 284 284 285 286 286 286 285 285 285 285 285 285 285 286 287 287 287 287 287 287 286 287 286 286 286 285 285 285 285 285 285 285 285 285 285 285 285 285 285 284 285 286 286 287 286 285
283 282 281 281 281 282 281 282 281 281 282 282 282 283 283 283 282 281 282 282 282 283 282 283 282 283 284 282 281 282 281 281 281 281 281 281 281 281 281 282 282 283 283 284 284 284 285 285 285 285 285 285 285 285 285 286 286 286 287 287 286 286 285 286 286 285 286 285 284 284 285 284 285 285 285 284 284 284 284 283 284 285 285 287 287
281 281 281 282 282 282 282 282 282 282 283 283 283 284 284 284 284 283 283 283 284 284 284 284 283 282 282 281 281 281 281 282 282 282 282 282 282 282 282 281 281 281 281 281 282 283 284 284 284 285 285 285 285 285 285 285 285 285 285 286 286 286 285 285 286 286 286 285 285 284 285 285 285 284 284 284 284 284 284 284 284 284 284 285 286
281 281 281 281 283 283 284 284 284 284 283 284 284 285 285 284 283 283 282 282 281 282 282 282 283 284 283 283 283 283 283 283 282 282 282 282 282 283 283 283 283 282 282 282 281 281 281 282 283 283 283 284 284 284 285 285 285 285 285 285 285 285 285 285 285 285 284 284 284 284 284 285 284 284 284 284 284 284 284 284 284 284 284 284 284
284 283 282 284 283 283 284 284 283 283 283 283 282 282 281 282 282 281 280 280 280 280 280 280 280 281 281 282 282 282 282 281 280 280 280 280 280 281 281 282 282 283 283 282 282 282 282 281 281 281 282 283 283 283 284 284 284 284 285 286 286 285 284 284 284 284 284 285 284 284 284 284 284 284 284 284 284 284 283 283 283 283 283 283 283
284 283 282 282 282 281 280 280 281 283 283 282 281 282 282 281 281 281 280 280 280 280 280 279 279 279 279 279 279 280 280 280 279 280 280 280 280 280 281 280 281 281 282 282 282 282 281 282 282 282 281 282 282 282 283 283 283 283 283 284 285 284 284 284 284 284 284 284 283 283 283 283 284 283 283 284 284 284 284 283 284 284 283 284 283
283 283 282 282 280 280 280 280 280 280 281 282 282 282 281 281 281 280 280 279 279 279 279 279 278 278 277 277 277 278 278 278 278 278 278 279 279 280 280 280 280 279 280 281 281 280 280 280 281 281 281 281 281 281 282 282 282 283 283 283 283 283 283 284 284 284 284 283 283 283 283 283 283 282 283 282 282 283 283 283 284 284 284 284 284
281 280 279 278 278 278 279 278 279 279 280 280 280 281 280 280 279 279 279 279 278 278 278 278 278 277 277 277 276 277 277 277 277 278 278 278 278 278 279 279 279 279 279 279 280 279 280 279 280 279 280 280 280 281 281 281 282 282 282 282 282 282 282 283 283 284 285 284 283 283 283 283 282 282 283 282 282 282 282 283 283 284 284 284 284
278 278 279 280 280 279 279 280 279 279 279 279 279 279 279 279 279 279 280 279 279 278 278 278 277 277 277 276 277 276 277 277 277 277 278 278 278 278 278 278 278 279 279 279 279 279 279 279 279 279 279 279 280 280 280 280 281 281 281 281 282 282 282 282 282 283 283 283 283 283 284 283 283 282 283 283 282 282 282 282 282 283 283 283 282
278 278 278 278 279 278 278 278 278 278 277 277 278 278 278 278 278 278 278 278 279 278 278 277 276 276 277 277 278 278 278 278 278 278 278 278 278 278 278 278 278 278 278 278 278 278 278 278 278 279 278 278 278 279 279 280 280 280 281 281 281 281 281 281 282 282 282 282 283 283 283 283 283 283 283 283 283 283 283 282 283 282 282 282 282
278 278 278 278 278 277 277 278 278 278 277 277 277 278 279 279 280 280 279 279 280 278 278 278 277 277 277 278 278 278 278 279 279 278 278 278 278 277 277 277 277 277 277 278 278 278 278 278 278 278 278 278 278 278 278 278 279 280 280 280 280 281 281 281 281 281 282 282 282 283 283 283 283 284 284 284 284 283 284 283 283 283 282 282 282
278 278 278 278 278 278 278 277 278 277 277 278 278 278 278 278 278 278 278 279 278 279 278 277 277 277 277 277 278 278 279 278 278 278 278 279 278 278 278 277 277 277 278 277 277 277 277 278 278 277 277 277 278 278 278 278 278 279 279 279 280 280 280 280 281 281 282 282 282 283 283 283 284 285 286 286 286 286 285 284 284 283 283 283 283
278 279 279 279 279 278 278 278 278 278 278 278 278 278 279 279 279 279 278 278 279 278 277 277 277 277 277 277 278 278 278 278 278 278 278 278 278 278 278 278 278 278 277 277 277 277 277 277 277 277 277 277 277 278 280 282 283 281 280 280 281 281 280 280 280 280 281 281 282 282 283 284 285 285 285 286 287 288 288 286 285 285 284 284 283
278 278 277 277 277 277 277 277 278 278 278 279 279 278 278 277 277 278 278 278 277 277 276 276 276 277 277 277 277 278 278 277 278 278 278 278 278 278 277 277 277 277 277 277 277 276 276 276 276 276 276 276 277 277 280 282 283 283 281 280 281 281 281 281 280 280 280 281 281 281 282 283 284 284 284 286 287 288 288 288 288 288 287 285 284
277 277 277 277 277 276 276 277 277 277 277 277 277 277 277 277 277 277 277 276 276 275 276 276 276 276 276 276 277 277 277 277 277 277 277 277 277 276 276 276 276 276 277 277 276 276 276 276 276 276 276 276 276 279 281 282 282 283 282 280 280 280 281 280 280 280 280 280 280 281 281 282 282 282 282 283 284 287 288 288 288 288 289 289 289
276 278 278 278 278 277 277 276 276 276 277 276 276 276 276 276 276 276 275 276 275 275 275 275 275 275 276 276 276 276 276 276 276 275 275 275 275 275 275 275 275 276 276 275 275 276 275 276 275 275 275 275 275 279 280 281 281 282 282 281 279 279 279 279 280 280 280 280 280 280 280 281 282 284 284 283 283 283 285 287 288 288 288 289 289
276 277 277 277 276 276 276 276 276 276 276 276 276 276 276 276 275 275 275 275 275 275 275 274 274 274 275 275 275 274 274 274 274 273 273 273 272 272 273 274 274 274 274 274 274 274 274 274 274 274 274 274 274 277 279 280 280 281 282 281 278 278 278 279 279 280 280 280 280 280 280 280 281 281 282 282 282 282 282 283 283 284 284 285 288
276 277 277 276 276 275 275 275 276 276 276 275 275 275 274 274 274 274 274 274 274 273 273 273 273 273 273 273 272 272 271 271 271 271 270 270 271 271 272 272 272 272 272 272 272 272 272 272 273 273 273 273 273 277 278 279 280 281 281 281 277 277 277 277 278 278 279 280 280 280 280 280 280 281 281 282 281 281 282 282 282 282 282 283 284
276 277 277 275 275 276 275 276 276 275 274 274 273 273 273 273 273 273 272 271 272 271 271 271 271 271 271 271 270 269 269 268 268 268 268 268 269 269 268 269 269 269 269 270 270 270 270 270 270 271 270 270 271 276 277 278 279 279 280 276 275 275 275 275 275 276 277 279 279 280 280 280 280 280 283 285 285 283 281 280 280 281 282 282 283
276 276 276 276 276 276 276 275 274 273 273 272 272 272 271 271 270 270 269 269 269 268 269 269 269 269 269 268 268 267 266 266 266 266 266 266 266 265 265 266 265 266 266 266 266 267 268 268 268 268 268 269 269 272 276 277 277 278 277 274 274 273 273 273 273 274 275 276 277 277 278 279 279 279 282 285 286 286 282 281 280 280 281 281 282
276 275 275 275 275 275 275 274 272 272 271 271 271 270 269 268 268 268 266 267 266 266 267 266 267 267 267 266 265 265 264 264 264 263 263 263 263 263 263 264 263 263 263 264 264 265 265 266 266 266 267 267 267 270 274 275 276 276 275 272 272 271 271 271 272 273 273 274 275 278 279 278 278 279 282 284 285 284 282 281 281 280 280 280 281
276 276 276 275 275 274 273 272 271 270 270 270 268 267 266 266 266 266 265 264 264 266 265 265 265 265 265 264 264 263 263 262 262 262 262 261 261 261 262 262 262 262 262 263 263 262 263 263 264 265 267 266 265 267 271 272 273 274 272 270 270 270 270 271 271 271 272 273 273 275 277 277 277 279 283 284 284 283 281 281 281 280 280 279 281
275 275 275 275 274 272 271 270 269 269 268 267 266 265 264 265 265 265 264 263 264 264 264 264 264 264 263 263 262 262 262 261 261 261 261 261 261 261 261 261 261 261 261 261 261 261 261 261 262 263 263 264 264 264 266 271 272 273 274 270 270 269 269 270 271 271 271 271 272 272 274 277 279 280 281 282 284 285 282 281 281 280 280 279 282
275 275 276 273 272 271 270 269 269 268 267 266 265 263 263 263 264 263 262 263 264 264 263 263 263 262 262 261 261 261 260 260 260 260 260 260 260 260 260 260 259 260 260 260 260 260 260 261 261 262 262 263 263 264 265 270 271 272 273 272 268 269 269 269 269 270 270 270 270 271 272 275 277 279 280 282 283 284 284 282 282 281 281 282 284
274 274 272 271 270 268 268 267 266 266 265 264 263 261 262 261 261 261 261 263 263 262 262 261 261 261 260 260 259 260 260 260 260 260 259 259 260 260 259 259 259 259 259 259 259 259 259 260 261 261 262 262 264 266 264 268 270 271 272 273 269 268 269 269 268 269 269 270 271 271 272 274 277 278 279 280 281 283 284 283 283 286 286 286 284
271 270 270 269 267 267 266 266 266 264 264 264 261 259 260 260 260 261 262 262 262 261 261 260 260 259 259 259 259 258 259 259 259 259 258 258 259 258 259 259 258 258 258 258 258 259 259 259 259 260 261 262 262 263 267 266 269 271 272 272 272 271 273 270 268 268 268 268 270 271 273 276 277 278 279 280 281 282 282 282 285 286 287 287 286
270 269 268 266 266 265 265 264 264 263 262 262 260 259 259 259 260 262 262 261 260 260 259 259 259 258 258 258 258 258 258 258 258 258 258 258 258 258 258 258 258 258 258 258 258 258 258 258 258 259 260 261 262 262 265 268 267 270 271 272 273 273 273 269 269 268 268 268 268 268 270 274 276 277 279 280 280 281 280 283 284 285 286 287 285
268 267 266 264 264 263 263 262 263 261 261 260 260 258 258 257 260 260 260 259 259 258 258 258 257 257 257 258 258 258 258 257 258 258 257 258 257 257 257 258 258 258 257 257 257 258 257 257 258 258 259 260 261 261 262 265 269 270 271 272 272 273 273 273 268 268 268 268 271 273 274 275 276 277 278 279 279 280 282 282 283 284 284 283 284
266 264 264 263 262 260 260 260 261 261 260 259 259 258 256 259 260 259 259 258 258 257 257 257 257 257 258 258 257 257 257 258 258 258 258 258 257 257 257 257 257 257 257 257 257 257 257 257 257 258 259 259 261 261 261 262 264 266 267 269 270 271 271 272 271 269 272 274 274 274 275 275 275 275 274 275 276 277 280 281 282 283 282 282 282
264 265 263 261 260 260 259 259 258 259 259 258 257 257 258 259 258 259 259 257 256 257 257 257 257 257 257 257 257 257 258 258 258 258 258 258 258 257 257 257 257 256 256 257 257 257 257 258 258 259 259 260 260 261 261 262 263 263 263 264 264 265 269 270 267 266 268 267 268 270 270 273 274 276 276 277 277 278 278 279 280 280 281 281 282
264 263 260 259 259 260 258 258 258 259 258 257 257 256 257 257 257 258 256 256 256 257 257 257 257 257 257 257 257 258 258 257 257 257 257 257 257 257 256 256 256 257 257 257 258 258 259 259 259 260 261 261 262 262 263 263 263 263 263 264 264 264 264 264 264 265 265 267 267 271 272 271 271 272 273 274 275 276 278 279 280 280 280 280 282
263 260 260 260 260 258 258 257 257 258 257 256 255 256 256 257 258 257 256 255 256 257 257 256 257 257 257 258 257 257 257 257 256 257 257 257 256 256 257 258 260 260 260 260 260 262 263 264 264 263 263 263 264 264 265 269 268 271 269 268 267 267 266 265 267 270 268 268 269 270 270 270 270 271 271 272 273 275 277 280 280 280 279 279 280
261 260 259 259 258 257 257 256 257 257 256 255 255 256 256 258 256 255 255 255 256 256 256 256 257 257 257 257 257 257 257 257 256 256 256 257 261 265 264 261 261 265 268 270 269 265 266 266 265 266 266 265 264 266 271 273 273 273 273 274 273 273 273 272 273 275 273 270 269 269 269 269 269 270 271 271 272 273 275 277 278 280 280 279 279
260 259 258 257 257 257 256 255 256 256 255 255 256 256 256 256 257 257 256 256 255 256 256 256 257 256 257 257 257 256 257 257 257 257 256 256 256 258 265 267 267 267 268 270 270 271 271 271 268 266 267 272 272 273 272 272 273 273 273 273 274 274 274 275 276 272 270 269 268 268 268 269 269 270 270 271 272 273 274 275 276 278 279 279 279
Wind_Speed
7 9 12 13 12 11 10 10 11 12 13 14 15 14 14 12 13 13 10 11 10 9 9 8 7 6 5 5 2 4 3 4 6 5 6 4 3 2 3 3 4 4 4 5 6 6 6 6 6 6 6 7 8 9 9 9 8 7 7 5 8 6 4 5 6 8 8 2 2 1 0 1 1 0 2 4 4 4 3 6 5 4 4 5 5
9 13 13 12 11 11 10 10 12 14 14 14 14 12 12 13 13 11 10 11 10 8 6 8 6 3 4 3 3 5 6 6 6 6 6 6 5 4 3 1 1 1 2 2 3 5 6 5 6 7 7 7 8 6 6 6 6 6 6 5 4 9 7 8 8 10 3 8 7 3 1 3 2 2 4 5 4 4 6 6 5 6 6 4 3
11 11 11 11 11 11 10 10 10 10 10 12 11 13 14 12 11 10 10 10 10 10 9 5 4 6 6 4 4 3 3 4 5 4 5 6 5 5 4 3 2 1 0 0 1 2 3 3 5 5 6 6 6 6 6 7 8 8 8 9 6 4 4 4 9 11 7 4 3 5 3 4 3 3 5 8 6 6 6 7 7 6 7 6 5
13 11 11 11 10 10 11 12 10 9 10 10 11 11 10 11 11 12 11 11 11 11 10 7 6 4 5 4 5 5 3 3 5 6 6 7 6 5 5 3 2 0 1 0 1 0 1 2 2 2 4 4 6 7 7 8 7 6 7 8 7 7 5 7 9 10 6 11 4 7 3 4 2 9 10 4 6 6 7 7 5 7 7 6 5
10 10 11 11 12 13 12 11 10 11 11 11 11 10 9 11 11 10 10 11 11 12 12 9 10 10 9 9 8 7 7 8 6 6 5 3 2 4 3 3 3 2 3 2 1 2 1 1 2 3 3 3 4 5 6 8 9 9 10 9 9 9 8 5 7 7 7 12 8 5 2 1 7 3 4 5 3 5 7 7 7 7 8 8 7
9 9 9 8 8 9 12 13 13 11 11 10 9 10 10 11 11 11 10 11 11 12 11 9 9 9 9 9 8 7 7 7 7 3 2 1 1 2 2 3 3 3 3 3 3 3 4 2 1 2 3 4 4 5 5 4 5 6 7 8 9 7 8 6 6 8 7 8 5 3 6 7 5 4 4 5 0 3 4 5 7 7 6 7 7
8 8 8 9 9 9 11 12 10 11 10 7 9 11 12 12 11 11 11 10 11 11 12 10 10 9 8 6 5 6 5 5 4 4 3 1 1 2 1 2 2 2 3 3 4 4 3 3 2 1 2 3 3 4 5 6 6 8 7 7 9 8 5 8 9 9 7 8 8 9 2 0 4 7 7 3 1 3 4 6 7 5 6 7 8
7 9 8 7 8 8 10 9 10 9 8 7 9 10 13 12 12 12 11 12 11 11 12 11 9 9 9 8 7 7 6 5 6 6 7 7 7 5 2 1 2 1 1 3 3 3 3 4 4 3 2 3 2 4 6 6 5 4 6 8 8 8 9 10 8 7 11 9 9 11 8 2 2 1 3 10 6 4 6 4 3 7 6 7 8
5 7 8 7 7 7 7 10 9 8 8 8 8 9 10 11 12 12 13 12 12 13 13 13 11 9 8 7 8 7 7 7 7 7 8 7 9 9 9 7 4 2 1 1 2 2 3 3 4 4 4 4 2 3 4 4 5 6 6 6 7 7 7 7 7 8 9 9 5 9 7 8 4 3 1 1 6 6 5 8 8 2 3 7 9
5 6 7 7 4 5 7 9 10 8 6 6 7 9 10 10 13 14 14 11 11 13 12 13 12 10 10 10 10 9 9 9 8 10 9 8 8 8 7 8 8 9 8 4 3 2 3 3 3 4 4 4 3 3 4 4 4 5 5 6 7 9 7 8 10 8 8 8 8 6 9 7 5 5 4 3 3 3 7 7 8 11 10 11 11
4 5 5 4 5 8 8 9 5 5 5 7 9 9 10 11 10 14 11 10 11 12 12 12 10 10 10 10 10 10 10 9 9 10 10 10 9 8 7 6 6 7 8 9 9 8 6 4 3 4 4 4 4 4 4 4 5 5 6 5 6 8 8 8 9 8 7 8 9 7 9 9 11 10 9 6 7 6 3 4 4 9 13 9 8
4 5 5 5 6 7 6 8 7 6 8 10 8 8 10 10 10 12 12 10 9 9 10 11 10 10 9 9 10 9 8 8 9 8 8 8 9 9 7 8 8 7 7 7 8 9 9 8 5 4 4 4 4 4 4 5 5 4 5 5 6 6 7 7 8 10 9 8 10 8 8 7 8 8 6 8 9 9 8 8 7 3 5 6 3
4 4 4 4 5 7 8 7 8 10 9 8 8 7 8 10 10 11 11 10 9 8 9 9 10 10 9 9 8 8 9 8 8 8 7 7 7 8 9 8 7 9 9 8 8 9 7 8 8 7 5 4 4 4 5 5 5 5 5 5 5 6 7 8 8 9 9 10 9 9 9 8 10 7 6 7 6 6 5 8 4 3 7 4 4
4 4 4 5 7 7 7 6 6 6 7 7 7 7 7 8 8 10 8 8 8 9 10 10 10 9 8 8 8 7 8 7 7 7 7 6 6 7 7 7 7 7 7 8 8 8 7 7 7 7 5 5 4 4 4 5 5 6 6 6 6 7 6 7 8 8 9 9 7 7 8 8 9 7 8 7 7 6 7 8 5 4 2 4 1
4 4 5 6 7 7 6 6 6 5 5 5 4 5 6 8 9 9 10 9 9 8 8 9 8 8 8 7 7 6 6 6 6 6 6 6 6 6 7 7 7 7 7 6 8 8 8 8 8 7 7 6 5 5 5 4 4 5 5 6 6 6 6 6 6 7 9 8 8 8 8 7 7 7 7 9 7 9 8 7 7 8 4 3 5
3 4 5 6 6 5 5 4 3 3 4 4 7 8 9 8 8 8 8 7 7 7 7 7 6 6 6 8 8 7 5 4 5 5 6 5 6 6 7 6 6 6 7 8 9 9 9 9 8 8 7 6 6 5 5 5 5 5 6 6 7 5 6 6 7 6 8 8 9 8 7 8 6 7 7 8 8 8 8 6 7 9 11 11 4
3 3 4 4 4 2 1 1 2 4 5 6 6 7 7 8 8 9 9 8 8 7 6 5 5 5 6 6 6 6 7 7 7 7 7 6 6 6 6 6 7 7 7 6 8 8 8 9 9 10 9 8 7 7 6 5 5 5 6 6 7 7 6 7 7 7 7 7 7 8 9 8 8 6 7 7 7 7 8 8 8 12 9 11 10
3 3 2 2 2 1 0 2 2 3 4 5 5 5 6 6 6 7 8 9 8 8 8 7 7 6 6 7 6 6 5 5 5 5 5 6 6 6 6 7 8 7 6 7 7 9 9 8 7 8 8 9 9 8 7 7 6 6 6 6 6 6 6 7 6 7 7 6 7 7 7 7 7 7 8 7 7 8 7 7 8 9 9 13 12
3 3 3 1 1 1 1 1 2 2 2 2 4 4 5 5 5 4 5 5 5 5 5 6 5 5 5 6 6 6 4 4 3 3 3 4 6 5 5 5 6 6 7 8 7 7 7 9 8 9 9 8 7 8 7 7 7 7 7 7 6 5 6 7 7 6 7 6 7 8 8 8 7 8 8 7 7 7 7 7 7 7 8 12 13
3 3 3 2 1 0 0 1 2 2 2 2 2 3 3 2 3 3 3 3 4 5 5 5 5 4 5 3 4 3 4 5 7 7 9 8 7 7 7 6 5 4 5 5 6 7 8 8 8 8 9 9 10 9 8 7 7 6 6 7 7 6 7 7 8 7 6 6 7 9 9 8 7 7 8 7 8 8 7 7 7 7 8 9 10
3 3 3 1 0 2 2 2 2 2 2 2 1 0 0 0 0 0 1 3 4 4 4 4 4 4 4 3 4 3 4 4 5 4 4 5 6 8 9 8 9 10 8 8 6 5 5 6 6 7 7 8 8 9 9 8 8 8 8 7 7 7 7 8 7 9 7 6 7 8 9 9 7 8 8 7 8 7 7 7 7 7 8 8 8
4 3 3 1 1 2 2 3 3 3 3 2 2 1 1 0 1 1 2 1 2 3 4 4 4 3 4 4 4 4 4 5 4 5 4 4 3 4 4 5 7 8 7 9 11 10 9 8 5 6 7 7 7 8 7 7 8 9 9 6 6 7 8 8 7 8 8 7 7 8 10 9 8 9 9 9 8 8 8 8 8 8 8 8 8
4 3 3 4 4 4 3 2 3 3 2 1 1 0 0 0 0 0 1 0 0 1 2 2 2 2 3 3 2 2 2 3 2 4 4 4 3 4 4 4 5 5 5 6 6 7 8 10 10 10 9 7 7 7 7 7 8 8 8 8 8 7 7 8 8 9 9 8 8 8 9 8 6 8 9 8 8 8 8 9 11 8 9 10 8
3 3 3 3 2 1 1 3 3 3 2 1 0 0 0 0 0 0 0 1 1 1 1 1 1 2 3 3 3 3 4 4 4 4 5 5 5 4 4 4 5 4 7 7 5 6 6 8 9 10 10 11 11 9 7 6 8 8 8 9 8 9 9 8 9 9 8 8 9 9 8 8 8 10 10 8 8 8 9 9 10 9 9 11 8
3 3 4 3 4 4 3 3 3 2 1 1 0 1 1 1 2 2 3 3 2 1 0 1 1 2 3 3 4 3 4 5 5 5 6 6 5 5 4 5 5 5 5 6 6 5 6 5 7 8 9 9 10 10 12 11 9 6 7 9 9 8 8 9 10 10 9 9 9 9 9 7 8 10 9 8 7 8 9 9 10 9 9 9 8
6 4 3 2 1 1 2 1 1 1 2 2 2 2 2 3 3 3 3 2 1 1 0 1 2 3 4 4 4 4 5 6 6 6 6 6 7 6 7 6 5 7 7 5 7 7 6 8 7 7 7 8 9 9 9 10 11 12 10 9 8 8 8 8 9 9 9 8 9 10 9 8 8 10 10 8 7 9 9 10 10 10 9 7 9
6 5 4 2 1 2 4 3 3 3 3 3 3 3 3 3 3 3 3 2 2 0 1 2 3 4 5 7 8 8 8 7 7 7 7 7 7 7 7 7 6 6 7 8 7 7 7 7 8 8 8 9 8 8 9 10 10 10 10 12 12 11 10 9 7 8 8 8 9 9 10 9 10 10 10 9 9 9 9 10 11 10 9 8 10
4 4 4 5 5 4 4 5 4 4 3 3 3 3 3 4 4 4 2 1 1 1 1 1 2 4 4 5 6 6 7 8 8 8 8 7 7 7 7 7 6 7 8 7 8 8 9 7 8 8 9 8 8 9 9 9 9 9 10 10 10 11 12 11 11 10 9 9 9 9 9 10 10 10 10 10 9 10 9 10 9 8 8 9 10
4 5 5 4 4 5 5 5 5 4 4 4 4 5 4 4 4 4 3 3 2 1 3 3 4 5 5 5 6 6 6 8 9 10 11 11 10 10 9 8 7 7 8 8 8 8 9 9 8 8 9 8 9 10 9 8 9 10 9 10 11 11 12 12 12 12 11 10 10 9 10 10 11 14 17 15 13 11 9 10 9 8 9 9 10
6 7 7 7 7 6 6 5 5 5 5 5 5 5 5 5 5 5 3 4 2 2 2 4 4 5 5 6 7 8 9 10 10 11 11 11 11 11 11 11 12 11 10 9 9 10 10 10 11 10 9 9 9 8 10 17 16 12 11 11 11 11 11 11 11 12 12 12 11 11 11 16 17 18 18 18 18 18 19 14 11 8 9 10 10
6 5 5 6 5 5 5 5 5 6 7 6 4 4 4 4 4 4 4 4 4 5 5 4 5 5 6 6 7 9 9 11 10 10 10 11 12 11 11 11 12 12 13 12 11 12 11 11 12 12 13 11 10 10 17 20 21 23 15 12 12 12 12 11 11 12 13 13 12 12 11 13 14 15 15 19 19 20 20 21 21 19 15 12 10
4 3 1 0 1 3 4 4 4 4 5 4 3 3 4 4 3 4 4 4 5 4 4 5 5 5 6 8 8 9 10 10 9 9 10 9 10 11 11 12 12 13 13 11 12 12 12 12 11 12 13 13 13 15 23 23 23 23 21 14 12 12 12 12 12 13 13 12 13 12 11 10 10 12 12 11 14 18 20 21 22 21 21 23 20
1 1 2 1 2 2 2 3 4 4 4 4 4 4 4 3 4 3 3 5 4 4 4 5 6 7 8 8 8 8 9 9 9 8 8 9 10 11 12 13 14 13 12 12 13 13 13 13 12 13 14 14 14 19 25 26 26 26 25 21 12 13 14 14 14 15 15 15 13 12 12 11 10 16 14 12 12 12 16 21 21 22 22 23 23
3 4 3 3 3 4 5 5 4 3 3 3 4 4 3 3 4 5 6 5 6 6 6 7 7 7 7 8 8 8 9 9 9 10 10 11 11 12 12 11 11 11 12 13 13 14 14 14 14 14 14 14 16 18 26 27 27 27 27 23 13 14 15 15 16 16 15 15 15 14 13 13 12 12 11 12 12 12 12 12 12 12 13 17 22
4 2 2 4 5 5 4 4 3 3 3 4 5 4 3 5 5 6 4 6 6 7 7 7 8 8 7 7 8 8 9 10 10 10 11 12 12 12 12 11 10 11 13 13 13 14 14 15 15 14 15 16 16 25 28 29 28 29 29 25 15 15 15 15 16 16 17 16 16 15 15 15 15 13 12 12 12 12 12 12 12 13 13 13 13
5 4 4 6 5 6 5 4 2 5 4 5 4 4 5 5 4 5 5 5 5 6 7 7 7 7 7 8 8 9 9 9 10 11 11 12 12 11 12 12 12 12 12 13 14 13 16 17 16 15 16 18 18 29 30 30 30 29 31 19 14 14 14 14 16 17 16 15 14 14 15 15 16 16 15 20 19 14 12 13 15 14 13 13 13
4 6 6 5 6 5 4 4 4 5 5 5 3 4 5 5 5 4 4 4 4 5 6 6 5 7 8 8 8 9 10 11 11 11 11 11 11 12 12 10 13 13 13 13 13 14 13 14 16 15 15 17 18 24 30 30 30 32 25 15 14 14 14 15 17 16 15 15 16 16 17 17 17 18 18 23 24 21 15 15 15 15 14 13 13
6 5 5 5 4 4 4 6 6 6 4 3 3 3 4 4 4 4 4 4 4 5 4 5 6 6 7 8 8 9 10 11 11 11 12 12 11 11 11 10 11 13 14 12 12 13 12 11 13 14 12 15 18 23 30 30 31 32 27 19 14 14 15 16 16 16 15 14 18 30 26 19 19 19 22 27 27 21 16 16 16 16 16 15 15
8 9 8 6 5 6 6 6 6 5 3 3 3 3 3 3 3 4 3 4 4 4 5 6 7 7 7 7 7 8 9 11 12 12 11 13 13 12 11 10 10 10 11 10 10 11 14 11 10 14 22 22 17 22 29 30 33 31 24 16 14 13 13 14 13 14 14 14 14 19 30 28 24 25 32 31 31 24 17 16 16 16 17 17 16
5 4 6 6 6 6 5 6 5 3 2 3 3 2 2 3 3 3 4 4 4 5 6 6 7 7 7 7 7 9 9 10 12 13 11 11 11 11 11 11 12 10 12 11 11 12 14 12 11 13 12 13 16 18 20 29 28 29 28 19 14 14 14 15 13 12 12 15 15 16 21 31 35 35 36 38 35 34 23 18 16 16 16 19 15
7 6 6 6 4 6 6 5 4 3 2 2 2 2 3 2 3 3 4 4 4 5 6 6 7 7 7 7 7 7 10 11 9 11 11 11 10 12 12 12 12 10 9 11 12 12 12 13 10 11 12 12 12 16 17 27 28 28 28 24 14 14 15 15 14 16 13 15 14 14 15 25 34 35 35 35 35 34 33 21 19 18 18 17 16
4 5 5 6 5 5 5 4 3 3 2 1 1 3 3 3 3 4 3 3 5 6 6 6 7 7 7 7 7 8 8 9 10 10 11 11 10 11 11 12 11 12 14 15 13 13 12 11 9 9 10 11 14 22 18 23 27 28 27 28 18 14 15 13 16 14 15 16 16 15 13 20 31 32 33 35 37 34 36 24 19 22 23 24 19
6 3 2 5 5 4 4 4 2 2 2 1 2 3 3 3 4 4 3 4 5 5 7 7 8 8 8 8 8 8 9 8 9 10 10 12 11 11 12 12 13 13 13 14 13 12 13 12 11 8 9 10 11 13 22 20 25 28 28 27 28 24 27 19 15 17 17 17 16 16 18 29 32 33 33 34 35 38 32 25 32 34 31 27 23
3 5 5 4 5 4 3 2 2 1 1 1 2 3 3 4 5 3 4 4 4 5 6 7 8 8 8 8 7 8 9 8 9 10 9 12 12 11 11 11 11 11 11 12 12 11 12 12 12 12 9 9 10 10 17 25 23 28 28 30 30 31 31 20 18 16 16 18 18 18 21 33 34 34 35 33 33 33 25 33 34 38 33 27 17
7 5 4 3 4 2 2 0 0 1 1 1 1 2 4 5 5 3 4 5 5 6 7 8 9 8 8 8 8 8 9 8 8 9 11 11 12 10 11 10 11 11 10 11 10 10 10 12 13 12 12 10 10 11 11 17 27 30 31 31 32 33 31 31 22 16 17 16 24 35 37 36 35 36 38 37 32 33 37 36 37 38 30 17 15
5 4 3 3 3 2 1 0 0 0 0 1 1 1 4 5 4 4 5 4 6 7 8 9 9 8 9 9 10 9 7 8 10 9 9 10 10 10 10 11 11 11 11 11 12 11 11 10 11 11 12 13 12 11 13 13 15 20 22 28 32 32 32 33 31 25 32 37 36 35 37 35 31 28 22 19 18 20 29 34 37 35 20 17 15
5 4 4 2 1 1 2 2 1 0 0 1 2 3 4 4 5 5 5 5 5 7 9 9 9 9 9 8 9 9 9 9 9 9 8 9 9 9 9 11 11 11 11 11 11 11 12 12 13 13 13 12 11 10 11 12 11 12 13 15 17 17 24 27 21 17 20 20 24 25 21 26 26 32 33 33 29 29 25 22 19 18 17 15 14
5 4 3 2 1 1 3 3 4 1 1 2 3 4 4 4 5 5 4 5 6 7 9 10 10 9 8 8 8 8 10 10 9 9 10 10 8 8 9 11 11 11 12 13 12 13 14 13 13 12 12 10 10 9 10 11 12 12 12 12 13 13 13 12 14 15 16 18 18 21 24 19 17 16 16 14 15 16 17 17 16 15 15 15 17
4 3 2 0 0 1 2 3 4 2 2 3 4 4 4 5 5 4 4 5 7 7 9 9 9 8 8 7 8 9 9 10 10 9 9 9 10 9 10 11 12 10 10 12 13 13 13 12 11 11 13 13 11 12 12 17 20 25 21 15 11 9 10 11 16 24 19 16 14 14 12 13 12 12 14 12 14 15 15 15 18 16 13 13 12
3 3 1 1 1 1 2 3 3 2 2 3 4 4 4 5 4 4 4 5 7 8 8 9 8 8 8 8 8 9 9 9 10 10 10 10 14 21 16 12 13 20 28 29 25 17 17 15 14 12 11 14 14 15 29 36 32 31 31 31 29 29 28 23 25 32 24 16 12 12 12 10 12 9 11 11 13 14 15 12 10 12 12 10 10
3 1 1 1 1 1 1 3 4 2 2 3 5 5 5 5 4 4 4 5 6 7 8 8 8 8 9 10 9 9 9 9 10 10 9 10 11 13 20 24 23 25 26 29 28 30 32 30 22 16 17 30 33 35 34 32 33 33 33 33 31 30 30 30 30 22 16 11 11 10 11 10 12 11 12 11 12 13 13 12 11 10 10 12 13
Wind_Direction
36 40 37 33 27 20 17 16 11 16 20 21 31 31 33 35 38 34 24 30 33 29 31 34 17 4 22 34 30 4 23 27 33 24 39 39 59 84 125 151 164 163 161 161 174 173 181 178 177 177 173 175 180 190 187 189 189 182 179 180 173 179 191 169 166 140 132 82 15 17 333 345 340 360 218 221 220 207 187 173 187 172 186 173 177
39 37 33 32 25 21 23 24 18 23 15 21 28 29 31 32 35 31 27 29 31 32 36 50 40 51 74 30 45 28 19 26 12 13 25 39 37 44 43 57 126 165 149 165 171 181 177 176 184 184 175 189 195 189 183 186 179 178 164 184 206 185 197 182 175 130 177 175 159 210 321 319 294 306 264 247 226 204 194 182 178 181 188 193 179
42 41 35 29 23 22 27 27 25 24 24 27 23 31 29 30 28 29 28 29 25 24 31 28 27 39 54 34 50 64 56 61 61 31 48 52 43 38 38 34 43 22 34 106 171 208 200 181 197 188 188 183 181 187 187 192 192 187 181 185 195 230 200 194 185 193 167 134 100 94 231 209 300 299 266 236 214 203 192 189 185 184 193 190 183
45 37 31 24 24 24 29 27 19 19 27 32 30 33 35 32 30 29 27 27 25 20 24 23 38 54 50 51 29 60 54 17 38 28 30 38 24 21 32 43 41 26 14 5 322 296 206 206 189 186 206 196 194 192 193 202 195 193 192 202 176 188 199 208 209 200 141 140 189 202 201 139 274 239 222 252 203 210 196 204 189 197 190 195 180
51 42 36 28 25 25 26 25 19 23 23 29 30 32 36 35 32 34 34 30 26 23 20 20 24 24 19 24 30 16 12 17 17 11 17 33 16 13 351 23 27 8 355 344 314 271 241 204 174 205 209 213 209 210 203 206 202 199 196 196 191 192 208 210 220 222 210 202 156 110 47 265 220 233 166 263 193 213 223 208 206 199 195 192 191
60 47 46 42 33 25 29 27 26 19 20 18 26 35 37 35 33 34 36 33 29 26 25 31 36 35 30 33 26 23 24 11 10 356 8 357 323 303 351 8 24 13 2 352 342 340 323 318 261 182 206 208 211 218 215 215 216 212 207 202 206 215 201 192 214 233 233 246 246 238 150 179 180 219 126 259 328 248 230 219 212 208 198 197 201
61 57 36 48 41 39 37 36 24 20 12 4 25 37 38 38 36 38 37 35 29 28 28 29 33 33 41 45 45 41 30 354 339 357 6 1 67 38 337 343 20 14 351 6 348 337 328 324 319 285 262 251 233 226 223 218 215 213 208 209 211 211 189 203 207 212 235 257 259 261 289 128 161 128 211 83 280 284 237 224 232 222 210 204 206
67 68 54 39 44 47 48 44 36 20 355 5 29 35 39 37 38 37 39 38 33 29 32 31 36 29 30 28 33 24 20 2 355 353 12 11 19 5 29 350 335 25 346 340 359 343 332 319 316 309 288 261 246 234 235 231 230 234 221 220 217 214 208 211 207 202 200 225 223 245 256 285 239 357 148 181 170 170 238 256 276 226 220 223 213
46 58 59 43 34 35 44 45 35 23 3 7 25 36 41 40 40 39 39 36 32 32 33 29 32 31 33 28 27 16 11 8 351 9 14 9 30 12 6 349 340 327 339 301 320 330 317 294 308 311 302 285 234 255 257 255 239 231 225 223 221 224 219 222 210 213 212 224 204 243 253 248 261 251 329 161 170 192 244 196 214 221 243 243 231
49 56 51 46 24 30 38 47 38 20 352 356 21 35 41 41 40 42 36 32 30 33 34 34 32 30 31 26 29 18 15 10 16 10 4 2 21 18 12 13 6 355 331 322 311 302 297 292 288 284 280 283 288 248 263 270 263 254 242 233 227 228 222 219 221 221 218 224 214 215 221 234 253 266 262 232 297 210 220 197 199 188 206 231 216
57 56 56 56 44 39 36 46 38 22 10 16 23 29 38 41 39 45 36 32 30 32 34 35 34 34 35 30 30 27 20 23 21 12 4 6 4 3 13 3 14 11 7 1 352 341 323 302 273 272 282 286 289 291 263 248 253 250 251 250 245 236 231 229 232 231 224 226 227 219 225 210 216 216 216 210 211 223 231 233 206 206 206 225 225
64 57 47 40 43 46 46 42 32 25 29 27 22 25 36 40 40 46 36 31 29 31 37 37 35 33 33 31 30 24 23 25 26 18 8 6 357 357 358 11 8 7 14 6 360 352 350 329 309 301 291 290 286 275 281 269 264 260 258 247 247 246 248 243 238 234 226 230 231 226 231 227 235 233 222 207 208 226 210 222 199 194 282 251 283
56 52 49 44 47 41 35 27 24 26 24 20 23 25 33 40 39 46 36 25 28 29 41 39 39 34 30 28 27 22 22 23 20 22 13 13 4 3 6 7 3 10 2 357 352 347 344 350 337 308 286 267 265 286 281 285 280 276 267 261 250 243 237 236 238 238 231 227 231 230 229 226 232 231 223 216 229 240 218 240 230 179 215 234 233
53 56 53 47 39 32 30 24 25 22 20 15 17 25 28 42 39 47 38 28 26 32 31 35 35 33 29 30 26 23 23 19 16 18 8 14 12 12 9 7 12 11 360 356 339 338 343 338 339 332 309 301 294 282 281 283 286 277 272 270 262 251 242 238 238 240 240 240 231 234 233 232 234 226 228 216 218 210 232 220 208 239 216 250 293
39 42 49 49 39 35 26 22 17 15 14 14 11 21 33 38 37 37 34 23 29 30 31 33 30 27 27 29 31 29 25 20 16 9 5 10 8 14 10 7 15 3 5 351 348 349 344 341 342 341 340 332 322 312 298 294 284 281 276 269 273 267 259 247 246 242 246 244 240 230 236 234 230 225 223 232 212 216 219 204 185 229 258 227 242
46 58 47 42 38 33 25 17 6 12 25 23 27 24 33 30 31 35 36 25 27 27 28 30 25 27 30 27 24 25 24 19 17 10 5 8 2 9 5 8 4 2 1 0 354 355 350 346 343 342 336 335 331 319 310 304 298 294 286 282 276 274 268 263 254 247 249 246 245 244 239 244 226 224 226 233 224 221 219 209 198 220 235 257 219
94 69 70 59 42 29 32 26 24 31 36 35 33 35 38 32 30 25 20 21 23 22 26 28 24 34 31 36 30 28 23 22 15 5 4 2 7 3 4 355 358 7 2 3 355 353 351 350 346 342 342 337 334 331 321 309 302 296 286 282 279 276 271 266 265 256 252 249 251 245 242 246 238 229 231 232 234 229 225 222 206 218 214 238 244
121 102 95 124 166 172 4 24 40 51 48 36 30 28 35 39 36 31 20 19 4 7 8 11 14 20 20 21 22 26 27 17 13 8 359 6 4 7 357 3 3 355 3 355 356 352 349 351 348 339 336 336 334 329 328 320 316 305 289 280 270 276 279 279 270 260 262 255 253 257 251 250 244 239 235 225 228 228 228 225 223 225 210 229 239
121 142 149 167 139 150 45 8 355 13 34 48 33 29 29 27 24 35 20 6 360 0 5 359 11 7 1 359 5 8 14 14 2 360 1 12 9 1 359 351 354 357 359 358 353 352 351 345 347 342 339 337 332 328 326 324 321 313 303 292 288 281 275 275 272 266 264 259 260 259 256 255 245 245 247 235 232 227 229 223 235 228 229 230 238
185 177 188 179 208 270 311 2 350 358 355 15 50 51 42 20 30 5 359 357 358 2 360 359 346 2 347 338 333 347 358 359 0 1 3 2 355 353 351 357 357 346 354 352 351 349 347 345 342 340 336 336 336 332 332 327 323 312 302 300 288 286 281 273 274 267 265 261 262 263 260 257 254 247 251 243 238 232 224 227 225 225 233 234 236
196 193 198 195 32 359 347 333 347 344 353 337 45 33 219 258 314 10 42 351 5 345 356 345 340 336 355 337 331 351 356 357 6 356 4 350 350 348 349 344 343 352 352 349 351 347 339 338 334 334 333 329 329 328 330 330 326 319 313 300 295 290 282 278 274 275 268 260 259 260 261 259 254 252 251 249 246 238 232 232 229 224 231 226 223
194 198 170 167 213 256 282 303 311 324 304 310 311 9 358 333 227 90 38 4 11 346 348 340 338 334 349 342 338 350 359 352 357 337 337 331 327 330 323 335 338 330 347 342 341 341 338 335 331 324 327 324 322 323 321 323 319 319 315 309 300 293 286 279 276 276 275 268 259 260 263 261 256 251 253 250 243 243 236 237 235 224 232 231 210
182 180 196 206 219 224 235 246 256 250 264 274 284 236 214 199 201 159 109 295 214 275 308 315 323 320 327 320 326 336 335 332 337 316 308 308 308 320 322 326 314 316 324 326 322 326 326 329 329 327 325 324 320 319 321 319 315 310 306 307 306 298 286 282 279 269 269 269 270 263 262 260 260 259 255 250 247 245 239 237 244 227 235 236 218
221 222 238 237 227 214 115 104 113 121 107 90 205 284 333 299 263 201 203 241 262 242 261 299 313 328 329 338 336 323 347 331 339 315 313 299 302 307 308 310 295 303 309 304 308 308 315 317 316 316 320 320 320 316 313 310 309 309 306 301 300 298 295 286 277 272 267 263 260 265 261 254 253 256 257 250 245 243 242 242 244 240 235 242 228
206 171 166 133 119 113 131 142 138 136 160 178 200 211 225 242 224 213 226 227 239 237 302 327 26 350 341 347 330 328 332 327 321 316 308 300 291 292 292 284 286 287 280 283 281 279 283 283 286 291 299 305 307 312 316 314 305 295 296 297 294 290 286 285 282 281 277 268 264 258 262 253 248 254 257 250 245 243 245 242 245 242 238 239 236
165 164 129 146 170 140 121 120 202 220 202 216 234 231 245 237 247 229 223 257 265 242 257 23 360 2 339 343 329 335 330 322 314 308 304 299 296 297 298 292 285 290 290 282 281 283 276 278 274 273 276 282 288 295 296 296 301 307 305 295 287 282 277 274 276 275 274 270 271 270 268 259 249 248 254 248 239 243 244 244 246 246 239 237 236
168 167 186 178 267 228 213 226 217 226 223 220 219 230 222 218 238 235 231 228 246 205 331 20 354 357 347 346 347 339 329 321 314 308 306 306 302 301 299 294 292 285 289 291 284 280 276 271 275 275 272 272 273 273 277 280 284 287 290 295 298 296 289 283 272 268 266 267 265 268 268 262 257 252 254 252 245 244 240 244 242 244 238 234 237
176 185 185 200 215 226 224 221 216 227 234 247 242 238 248 259 271 280 245 234 216 194 307 334 348 340 341 329 321 314 313 310 308 307 305 300 297 296 295 293 296 294 288 283 284 285 285 280 276 276 274 273 273 275 271 267 264 265 271 275 276 281 285 287 287 283 279 273 267 264 262 259 255 256 254 254 246 248 245 246 242 237 235 234 237
210 228 228 220 230 228 230 226 222 228 239 253 262 268 267 269 258 251 263 267 261 303 313 336 341 338 323 316 315 312 307 306 308 310 311 311 309 305 299 292 287 286 288 286 285 282 285 285 279 273 275 270 271 272 274 271 273 273 267 264 266 266 268 272 276 279 275 273 272 266 262 260 256 254 252 250 247 241 242 248 243 223 228 232 237
223 229 229 228 225 227 229 229 235 231 236 248 254 256 250 249 256 263 281 288 11 313 348 343 342 326 321 322 317 314 312 310 310 309 308 307 307 307 307 307 306 302 297 293 289 287 285 286 289 287 281 279 276 274 266 270 273 275 276 275 270 266 262 261 265 270 274 271 264 265 263 260 260 259 258 256 254 250 246 244 246 233 226 233 233
234 243 246 244 244 233 229 228 236 231 232 243 269 288 315 319 330 344 350 345 30 19 8 350 329 321 320 317 318 314 312 309 306 308 306 306 305 305 304 303 303 302 301 299 294 290 291 291 291 293 293 289 283 280 280 284 285 284 282 280 278 275 270 266 263 264 265 267 269 265 264 266 265 264 262 258 256 254 253 250 249 244 235 230 233
221 220 207 315 294 289 282 273 300 352 16 24 15 16 42 25 21 30 9 17 22 2 344 325 316 316 319 326 321 312 307 304 307 304 304 304 306 307 305 304 303 301 298 294 291 289 288 288 289 289 288 288 288 285 287 289 289 289 287 284 281 279 276 273 272 268 266 264 263 262 261 261 257 255 257 260 258 255 253 251 249 247 244 239 234
232 76 91 114 82 51 52 77 94 92 65 43 69 60 40 15 25 348 4 6 349 341 329 325 324 333 331 324 316 310 308 309 311 311 310 311 310 307 306 304 300 298 298 295 293 294 292 291 289 287 285 286 285 286 289 291 292 292 291 290 284 282 281 279 276 273 271 269 266 264 263 256 254 253 253 253 255 255 255 252 249 247 244 242 241
184 180 164 120 116 101 105 114 121 120 108 80 62 60 28 23 11 2 7 352 353 342 343 330 328 328 325 319 316 316 313 314 318 318 317 313 310 304 301 299 299 301 299 299 298 297 296 294 293 292 290 288 285 286 290 293 294 295 295 295 290 287 284 279 277 274 271 269 267 267 266 263 258 253 247 247 246 248 250 251 249 246 243 243 242
175 173 127 126 134 130 128 110 95 77 62 70 45 32 18 22 9 1 357 357 346 338 331 327 321 321 324 322 322 320 318 318 319 318 315 310 307 306 306 309 311 306 305 303 302 302 298 296 296 295 294 292 289 291 293 294 296 297 296 297 294 290 287 285 283 282 278 276 272 270 266 264 264 258 251 242 242 243 244 244 244 244 241 239 237
193 168 155 147 152 142 135 129 109 72 68 63 47 20 25 7 3 358 350 345 333 324 316 316 315 322 328 330 329 322 320 321 318 314 310 307 308 311 315 318 311 303 300 299 296 297 296 296 296 296 296 292 291 293 295 296 296 296 295 294 292 288 288 286 285 284 282 281 280 273 269 266 262 261 254 246 243 240 242 242 243 243 243 240 239
187 145 152 157 148 144 138 114 90 80 67 48 32 29 19 2 353 338 332 321 318 309 307 314 321 329 331 333 334 326 320 318 315 312 309 311 314 313 310 311 303 301 300 299 298 295 295 296 296 296 294 292 291 294 297 297 297 296 296 294 291 287 283 282 280 281 280 277 275 275 273 272 266 263 256 252 250 245 244 241 241 242 242 240 242
123 127 138 148 145 121 118 113 102 79 66 48 37 37 16 349 325 321 319 306 307 300 317 329 331 332 331 333 329 324 317 315 314 311 311 309 309 304 301 305 299 301 298 298 301 298 295 295 296 297 295 295 294 296 299 301 300 298 297 297 296 291 284 280 279 277 277 275 274 275 273 268 265 262 261 258 254 249 246 243 242 240 243 242 243
154 152 155 155 148 128 115 100 95 84 58 57 42 34 356 327 315 309 304 305 309 322 341 337 329 328 326 324 320 315 310 308 307 305 307 306 305 302 299 297 289 289 287 291 290 290 289 287 287 290 297 297 298 300 302 301 298 297 298 294 290 283 281 277 276 276 273 273 275 276 275 274 275 274 270 265 260 253 246 241 241 240 241 240 239
155 162 151 143 132 111 96 98 100 96 91 57 40 13 329 306 308 303 312 317 330 345 338 327 321 318 316 312 310 306 303 303 302 302 300 297 299 299 297 297 292 286 288 288 285 283 284 287 290 289 287 287 291 293 297 299 299 299 299 297 290 288 284 287 285 282 282 274 270 271 274 273 271 269 268 267 264 256 248 241 239 239 237 241 236
164 153 132 118 110 111 120 122 109 94 75 49 25 4 326 311 307 318 315 328 340 335 324 315 310 306 304 302 299 299 299 297 293 294 297 297 296 295 298 296 293 288 277 282 285 281 281 283 282 281 282 283 283 290 295 299 299 300 299 298 291 286 287 286 282 277 267 269 267 261 262 270 272 272 272 270 265 261 255 245 238 236 233 236 234
114 128 125 121 115 112 111 102 93 81 72 39 31 351 315 312 314 309 311 331 328 317 310 306 304 302 299 296 296 294 289 291 294 293 295 294 291 290 292 293 290 291 291 289 287 286 284 283 278 275 277 280 286 292 294 297 297 297 297 295 293 285 284 282 281 276 278 279 278 275 263 267 271 270 269 269 269 267 259 254 242 235 233 232 233
143 111 113 126 123 122 125 123 105 92 62 16 27 337 313 314 311 302 322 317 310 309 306 305 303 299 298 297 296 293 294 294 292 292 292 293 294 293 292 289 290 290 288 288 287 286 288 287 287 280 279 278 279 282 291 293 295 296 296 295 292 292 291 289 286 285 285 285 286 283 280 279 276 273 270 267 266 264 264 256 251 246 239 230 232
105 128 145 133 126 129 124 113 108 88 55 17 355 326 315 317 300 305 310 307 306 306 307 304 299 297 299 297 295 294 291 290 291 293 292 292 295 293 291 290 289 288 289 290 290 290 293 293 293 293 284 279 279 280 286 289 291 292 292 292 292 291 291 287 284 281 284 285 286 287 288 286 284 282 277 271 265 262 260 258 254 250 246 239 233
156 152 145 117 123 121 117 109 130 90 10 349 327 327 308 303 297 314 305 307 308 310 308 301 298 298 297 296 296 292 292 289 292 297 298 294 291 293 295 292 293 292 288 288 287 289 289 292 293 292 289 279 274 273 272 278 282 286 289 290 289 288 288 287 285 282 277 278 279 281 282 279 277 277 278 277 273 266 260 257 255 251 248 242 237
131 138 135 130 125 117 111 136 236 163 347 306 312 316 304 287 299 300 298 301 311 311 304 299 299 298 299 301 299 293 288 295 297 293 285 284 288 295 293 294 294 291 291 289 290 291 286 283 281 279 281 281 278 272 272 271 269 272 273 276 279 282 283 283 281 280 281 281 284 285 285 285 285 286 286 285 271 258 257 254 252 251 244 239 233
159 161 142 107 80 10 335 324 313 241 314 302 303 285 267 282 288 292 299 307 306 301 296 297 300 302 301 299 296 302 307 305 297 292 286 285 287 285 288 291 291 292 291 288 287 286 285 283 281 280 279 278 272 267 268 265 264 264 260 260 265 266 270 275 280 276 275 276 274 274 275 277 280 282 285 287 288 275 256 251 245 241 240 237 235
143 140 120 112 78 344 308 309 304 292 321 300 293 281 276 276 280 288 300 308 302 295 297 300 302 302 300 299 297 298 303 303 297 296 295 292 283 282 285 288 290 290 291 289 288 286 284 282 282 282 281 275 274 267 268 275 274 264 262 262 255 255 255 246 256 264 261 263 265 271 274 273 275 275 276 284 285 280 255 241 238 232 231 233 235
144 144 120 124 175 254 262 272 280 294 298 296 281 279 277 278 284 295 305 307 297 296 295 297 299 301 300 300 299 303 302 298 296 290 280 281 287 285 280 279 276 269 273 279 282 283 284 286 284 288 294 290 287 287 284 290 290 293 294 288 273 257 241 240 241 246 254 257 258 265 263 271 277 283 289 283 284 283 270 247 236 227 221 222 224
142 127 127 144 179 210 245 271 279 284 280 277 280 279 275 275 282 289 297 295 295 301 302 302 304 304 303 305 306 305 302 298 294 294 292 284 282 293 294 293 291 293 296 296 296 295 295 298 297 291 290 295 298 295 300 302 302 300 298 297 295 293 293 291 289 287 288 288 286 280 278 276 276 272 275 281 285 287 284 271 260 243 234 223 220
151 125 186 191 207 200 252 275 274 266 271 278 285 281 280 281 286 295 290 284 291 301 301 301 308 307 306 308 308 306 303 297 294 294 292 295 302 299 299 301 299 299 300 301 301 301 302 303 302 300 298 299 300 302 303 301 299 300 302 301 301 300 299 297 294 291 286 277 275 266 267 266 267 267 272 277 286 291 289 274 257 252 245 238 231